TimeEDT,TemperatureF,Dew PointF,Humidity,Sea Level PressureIn,VisibilityMPH,Wind Direction,Wind SpeedMPH,Gust SpeedMPH,PrecipitationIn,Events,Conditions,WindDirDegrees,DateUTC
12:53 AM,66.9,43.0,42,29.86,10.0,SSW,3.5,-,N/A,,Scattered Clouds,210,2014-04-22 04:53:00
1:53 AM,66.0,43.0,43,29.85,10.0,SW,4.6,-,N/A,,Overcast,220,2014-04-22 05:53:00
2:53 AM,64.0,45.0,50,29.83,10.0,SW,3.5,-,0.00,,Overcast,230,2014-04-22 06:53:00
3:53 AM,64.0,45.0,50,29.82,10.0,SW,3.5,-,N/A,,Overcast,220,2014-04-22 07:53:00
4:53 AM,64.0,46.0,52,29.81,10.0,Variable,3.5,-,N/A,,Overcast,0,2014-04-22 08:53:00
5:53 AM,64.0,46.0,52,29.80,10.0,Variable,4.6,-,N/A,,Overcast,0,2014-04-22 09:53:00
6:53 AM,62.1,48.0,60,29.81,10.0,WNW,6.9,-,N/A,,Overcast,290,2014-04-22 10:53:00
7:53 AM,57.9,53.1,84,29.82,2.0,Variable,6.9,-,0.01,Rain,Rain,0,2014-04-22 11:53:00
7:55 AM,57.9,53.1,84,29.85,1.5,WSW,6.9,-,0.00,Rain,Rain,250,2014-04-22 11:55:00
8:04 AM,57.0,54.0,89,29.85,2.0,WSW,4.6,-,0.03,Rain,Light Rain,250,2014-04-22 12:04:00
8:07 AM,57.0,54.0,89,29.85,4.0,WSW,4.6,-,0.03,Rain,Light Rain,240,2014-04-22 12:07:00
8:51 AM,57.2,55.4,94,29.85,4.0,Calm,Calm,-,0.03,,Overcast,0,2014-04-22 12:51:00
8:53 AM,57.9,55.0,90,29.82,4.0,Calm,Calm,-,0.03,,Overcast,0,2014-04-22 12:53:00
9:50 AM,60.8,55.4,82,29.85,8.0,Calm,Calm,-,N/A,,Overcast,0,2014-04-22 13:50:00
9:53 AM,61.0,55.9,83,29.82,8.0,Calm,Calm,-,N/A,,Mostly Cloudy,0,2014-04-22 13:53:00
10:02 AM,61.0,55.9,83,29.85,8.0,Calm,Calm,-,N/A,,Mostly Cloudy,0,2014-04-22 14:02:00
10:53 AM,62.1,55.9,80,29.83,9.0,Variable,4.6,-,N/A,,Overcast,0,2014-04-22 14:53:00
11:53 AM,63.0,55.9,78,29.83,10.0,Calm,Calm,-,N/A,,Overcast,0,2014-04-22 15:53:00
12:53 PM,66.9,55.9,68,29.81,10.0,Variable,3.5,-,N/A,,Overcast,0,2014-04-22 16:53:00
1:53 PM,69.1,54.0,58,29.79,10.0,SW,6.9,-,N/A,,Overcast,230,2014-04-22 17:53:00
2:53 PM,72.0,54.0,53,29.78,10.0,West,9.2,-,N/A,,Mostly Cloudy,270,2014-04-22 18:53:00
3:53 PM,73.9,51.1,45,29.75,10.0,WNW,10.4,23.0,N/A,,Partly Cloudy,300,2014-04-22 19:53:00
4:53 PM,73.0,48.9,42,29.74,10.0,West,9.2,18.4,N/A,,Partly Cloudy,270,2014-04-22 20:53:00
5:53 PM,73.0,46.0,38,29.74,10.0,West,10.4,18.4,N/A,,Partly Cloudy,280,2014-04-22 21:53:00
6:53 PM,70.0,44.1,39,29.76,10.0,NW,8.1,18.4,N/A,,Clear,320,2014-04-22 22:53:00
7:53 PM,66.9,37.9,34,29.79,10.0,West,10.4,19.6,N/A,,Clear,280,2014-04-22 23:53:00
8:53 PM,64.0,34.0,33,29.82,10.0,Variable,6.9,-,N/A,,Clear,0,2014-04-23 00:53:00
9:53 PM,61.0,32.0,34,29.85,10.0,NNW,9.2,-,N/A,,Clear,330,2014-04-23 01:53:00
10:53 PM,57.9,28.9,33,29.88,10.0,NNW,8.1,18.4,N/A,,Clear,330,2014-04-23 02:53:00
11:53 PM,55.0,28.9,37,29.89,10.0,Variable,5.8,-,N/A,,Clear,0,2014-04-23 03:53:00